Flag for U.S.A. Weather past 2 weeks in Orange, California, U.S.A.

Now
69 °F

Passing clouds.


Feels Like: 69 °F
Forecast: 58 / 85 °F
Wind: 7 mph from Southwest

Location: John Wayne Airport-Orange County Airport

Current Time: Mar 28, 2015 at 12:03:55 PM

Latest Report: Mar 28, 2015 at 10:53 AM


Visibility: 7 mi

Pressure: 30.07 "Hg

Humidity: 66%

Dew point: 57 °F

Location of OrangeLocation

Historic Weather in Orange — Graph

°F

Orange temperature yesterday

Maximum temperature yesterday: 85 °F (at 1:53 PM)
Minimum temperature yesterday: 61 °F (at 4:53 AM)
Average temperature yesterday: 70 °F

Past Weeks' High & Low Weather Summary

 TemperatureHumidityPressure
High92 °F (Mar 13, 1:53 PM)93% (Mar 28, 4:53 AM)30.19 "Hg (Mar 28, 4:53 AM)
Low58 °F (Mar 24, 2:53 AM)8% (Mar 13, 1:53 PM)29.87 "Hg (Mar 16, 5:53 PM)
Average68 °F57%30.02 "Hg
* Reported Mar 13 10:53 AM — Mar 28 10:53 AM, Orange, Weather by CustomWeather, © 2015

Note: Actual official high and low records may vary slightly from our data, if they occured in-between our weather recording intervals... More about our weather records

Advertising

Orange weather history for previous 24 hours

 ConditionsComfort  
Time TempWeatherWind HumidityBarometerVisibility
10:53 AM
Sat, Mar 28
69 °FPassing clouds.7 mph66%30.07 "Hg7 mi
9:53 AM66 °FPassing clouds.5 mph73%30.07 "Hg7 mi
8:53 AM61 °FPassing clouds.3 mph83%30.07 "Hg7 mi
7:53 AM58 °FFog.3 mph90%30.06 "Hg4 mi
6:53 AM58 °FFog.3 mph87%30.06 "Hg4 mi
5:53 AM59 °FFog.3 mph90%30.05 "Hg3 mi
4:53 AM59 °FPassing clouds.No wind93%30.05 "Hg8 mi
3:53 AM60 °FPassing clouds.6 mph86%30.05 "Hg10 mi
2:53 AM61 °FClear.No wind81%30.05 "Hg10 mi
1:53 AM62 °FClear.3 mph78%30.05 "Hg10 mi
12:53 AM62 °FClear.3 mph83%30.06 "Hg10 mi
11:53 PM
Fri, Mar 27
63 °FClear.7 mph81%30.06 "Hg10 mi
10:53 PM63 °FClear.5 mph81%30.05 "Hg10 mi
9:53 PM64 °FClear.5 mph78%30.03 "Hg10 mi
8:53 PM66 °FClear.6 mph70%30.02 "Hg10 mi
7:53 PM67 °FSunny.7 mph66%30.00 "Hg10 mi
6:53 PM71 °FSunny.6 mph59%29.99 "Hg10 mi
5:53 PM75 °FSunny.7 mph43%29.99 "Hg10 mi
4:53 PM77 °FSunny.6 mph39%29.99 "Hg10 mi
3:53 PM79 °FSunny.7 mph36%30.00 "Hg10 mi
2:53 PM82 °FSunny.9 mph26%30.00 "Hg10 mi
1:53 PM85 °FSunny.7 mph20%30.02 "Hg10 mi
12:53 PM83 °FSunny.5 mph26%30.05 "Hg10 mi
Weather by CustomWeather, © 2015

See weather overviewHow to use our weather pages